Location: Bright Sky Observatory
(40.7821°N, 74.2425°W)
Time: 08:36:42
(UTC-04:00)

Amateur Radio Satellites - All Passes

Search period start: 01 November 2014 08:06
Search period end: 02 November 2014 07:06
Location: Bright Sky Observatory, 40.7821°N, 74.2425°W

Satellite Date Start Highest point End Downlink Frequencies (MHz)
Time Altitude Azimuth
SO-67 01 Nov 08:19:53 08:23:16 56° 285° (WNW) 08:26:38 435.3500 MHz FM
RS-15 01 Nov 09:07:27 09:13:18 16° 263° (W) 09:19:18 29.354 - 29.394 USB, Beacon 29.352 USB
KITSAT 1 01 Nov 09:08:39 09:12:19 14° 99° (E) 09:15:58 435.175 FM
HO-68 01 Nov 09:18:38 09:25:14 38° 98° (E) 09:31:46 435.675 MHz FM
ISS 01 Nov 09:51:35 09:54:48 51° 139° (SE) 09:58:03 145.800 FM
UKube-1 01 Nov 10:12:15 10:16:15 35° 98° (E) 10:20:13 145.840 MHz, 145.915 MHz
ZACube-1 01 Nov 10:23:38 10:26:36 19° 93° (E) 10:29:33 437.345 MHz
Sapphire 01 Nov 10:41:18 10:46:05 30° 50° (NE) 10:50:50 437.095 MHz 1200 baud AX-25 AFSK
Oscar 11 01 Nov 10:46:12 10:50:32 86° 103° (ESE) 10:54:51 145.825 FM, Beacon 2401.500 USB
KITSAT 1 01 Nov 10:58:18 11:06:21 77° 117° (ESE) 11:14:26 435.175 FM
SO-50 01 Nov 10:59:20 11:03:44 59° 119° (ESE) 11:08:17 436.795 FM
PCSat 01 Nov 11:02:38 11:07:52 47° 55° (NE) 11:13:04 145.825 MHz
FUNcube-1 01 Nov 11:05:23 11:09:31 56° 100° (E) 11:13:35 145.950 - 145.970 MHz USB
HO-68 01 Nov 11:06:17 11:12:57 43° 295° (WNW) 11:19:35 435.675 MHz FM
ISS 01 Nov 11:28:50 11:31:39 25° 337° (NNW) 11:34:29 145.800 FM
UOSAT-12 01 Nov 11:40:11 11:42:44 15° 108° (ESE) 11:45:19 437.025 FM, 437.400 FM
UKube-1 01 Nov 11:48:55 11:52:13 21° 294° (WNW) 11:55:30 145.840 MHz, 145.915 MHz
ZACube-1 01 Nov 11:59:19 12:03:06 34° 289° (WNW) 12:06:51 437.345 MHz
Oscar 19 01 Nov 12:12:58 12:15:28 14° 60° (ENE) 12:17:57 437.125 CW, 437.150 USB
Sapphire 01 Nov 12:24:32 12:29:36 41° 249° (WSW) 12:34:38 437.095 MHz 1200 baud AX-25 AFSK
SO-50 01 Nov 12:41:23 12:44:41 19° 318° (NW) 12:48:04 436.795 FM
FUNcube-1 01 Nov 12:43:36 12:45:24 13° 297° (WNW) 12:47:11 145.950 - 145.970 MHz USB
PCSat 01 Nov 12:46:40 12:50:58 25° 253° (WSW) 12:55:15 145.825 MHz
AO-27 01 Nov 12:51:49 12:54:19 14° 59° (ENE) 12:56:50 436.795 MHz FM
KITSAT 1 01 Nov 12:55:44 13:02:33 29° 319° (NW) 13:09:23 435.175 FM
Oscar 16 01 Nov 12:57:36 13:02:16 36° 69° (ENE) 13:06:55 437.025 USB, Beacon 2401.1428
JAS-1B 01 Nov 13:01:45 13:06:57 37° 67° (ENE) 13:12:12 435.800 - 435.900 CW/SSB
ISS 01 Nov 13:07:36 13:09:14 13° 357° (N) 13:10:53 145.800 FM
Gurwin Techsat 1B 01 Nov 13:13:58 13:15:37 11° 58° (ENE) 13:17:15 435.225 FM
UOSAT-12 01 Nov 13:17:44 13:22:20 63° 305° (NW) 13:27:02 437.025 FM, 437.400 FM
AO-Echo 01 Nov 13:24:29 13:28:55 32° 68° (ENE) 13:33:29 ?
Uribyol 2 01 Nov 13:32:28 13:37:05 33° 67° (ENE) 13:41:43 436.500 FM
ITAMSAT 1 01 Nov 13:40:33 13:45:17 36° 68° (ENE) 13:50:03 435.822 SSB
Saudisat 1A 01 Nov 13:45:13 13:49:04 28° 48° (NE) 13:52:54 436.775 MHz
Oscar 19 01 Nov 13:49:00 13:54:08 78° 257° (WSW) 13:59:17 437.125 CW, 437.150 USB
AO-27 01 Nov 14:27:54 14:33:07 81° 256° (WSW) 14:38:23 436.795 MHz FM
Oscar 16 01 Nov 14:37:19 14:41:38 27° 265° (W) 14:45:59 437.025 USB, Beacon 2401.1428
ISS 01 Nov 14:44:31 14:46:56 18° 17° (NNE) 14:49:22 145.800 FM
Gurwin Techsat 1B 01 Nov 14:49:24 14:54:43 84° 75° (ENE) 15:00:04 435.225 FM
JAS-1B 01 Nov 14:53:02 14:57:48 27° 265° (W) 15:02:34 435.800 - 435.900 CW/SSB
TMSAT-1 01 Nov 14:55:05 15:00:21 70° 74° (ENE) 15:05:39 436.925 FM
AO-7 01 Nov 14:57:49 15:04:49 32° 58° (ENE) 15:11:51 29.400 - 29.500 MHz
KITSAT 1 01 Nov 14:59:00 15:01:17 11° 347° (NNW) 15:03:33 435.175 FM
UOSAT-12 01 Nov 15:01:48 15:03:26 12° 325° (NW) 15:05:04 437.025 FM, 437.400 FM
AO-Echo 01 Nov 15:03:18 15:07:38 30° 265° (W) 15:12:08 ?
Uribyol 2 01 Nov 15:11:57 15:16:31 31° 264° (W) 15:21:07 436.500 FM
Uosat F 01 Nov 15:18:22 15:21:36 17° 62° (ENE) 15:24:51 435.120 FM
ITAMSAT 1 01 Nov 15:20:25 15:24:49 27° 265° (W) 15:29:15 435.822 SSB
Saudisat 1A 01 Nov 15:24:41 15:28:38 33° 245° (WSW) 15:32:35 436.775 MHz
JAS-2 01 Nov 15:59:39 16:03:52 18° 55° (NE) 16:08:21 435.800 - 435.900 CW/SSB, 435.910 FM
ISS 01 Nov 16:20:43 16:24:04 79° 36° (NE) 16:27:24 145.800 FM
Gurwin Techsat 1B 01 Nov 16:33:37 16:35:19 11° 271° (W) 16:37:01 435.225 FM
TMSAT-1 01 Nov 16:38:03 16:40:46 14° 270° (W) 16:43:31 436.925 FM
AO-7 01 Nov 16:49:00 16:57:07 60° 257° (WSW) 17:05:19 29.400 - 29.500 MHz
Uosat F 01 Nov 16:54:57 16:59:54 59° 259° (W) 17:04:54 435.120 FM
KITSAT 1 01 Nov 16:57:46 17:01:13 13° 19° (NNE) 17:04:40 435.175 FM
Hamsat 01 Nov 17:19:22 17:23:04 31° 71° (ENE) 17:26:47 145.90 MHz
OPAL 01 Nov 17:29:13 17:32:59 21° 96° (E) 17:36:43 ?
JAS-2 01 Nov 17:41:27 17:47:46 88° 256° (WSW) 17:55:00 435.800 - 435.900 CW/SSB, 435.910 FM
SO-50 01 Nov 17:53:30 17:54:04 10° 33° (NNE) 17:54:37 436.795 FM
ISS 01 Nov 17:59:08 18:00:18 12° 231° (SW) 18:01:28 145.800 FM
SO-67 01 Nov 18:51:55 18:55:08 39° 74° (ENE) 18:58:23 435.3500 MHz FM
KITSAT 1 01 Nov 18:52:02 18:59:26 37° 46° (NE) 19:06:47 435.175 FM
Hamsat 01 Nov 18:55:56 18:59:03 20° 266° (W) 19:02:12 145.90 MHz
OPAL 01 Nov 19:07:22 19:12:01 43° 292° (WNW) 19:16:40 ?
RS-15 01 Nov 19:08:38 19:14:41 17° 98° (E) 19:20:39 29.354 - 29.394 USB, Beacon 29.352 USB
STRAND 1 01 Nov 19:26:48 19:31:44 44° 99° (E) 19:36:37 ?
JAS-2 01 Nov 19:30:53 19:34:00 14° 276° (W) 19:37:17 435.800 - 435.900 CW/SSB, 435.910 FM
SO-50 01 Nov 19:31:00 19:35:44 51° 53° (NE) 19:40:30 436.795 FM
HO-68 01 Nov 19:47:35 19:53:29 29° 60° (ENE) 19:59:23 435.675 MHz FM
UOSAT-12 01 Nov 20:08:37 20:11:37 16° 40° (NE) 20:14:34 437.025 FM, 437.400 FM
Oscar 10/S400 01 Nov 20:13:00 20:47:39 53° 199° (SSW) 04:30:30 145.825 - 145.975 CW/USB, Beacon 145.810 USB
AO-40 01 Nov 20:25:01 22:30:28 30° 213° (SSW) 01:43:12 Beacon 2401.320
SO-67 01 Nov 20:27:29 20:28:18 11° 269° (W) 20:29:07 435.3500 MHz FM
KITSAT 1 01 Nov 20:47:19 20:55:08 56° 247° (WSW) 21:02:56 435.175 FM
STRAND 1 01 Nov 21:06:40 21:10:37 23° 296° (WNW) 21:14:33 ?
UKube-1 01 Nov 21:07:31 21:11:18 30° 69° (ENE) 21:15:07 145.840 MHz, 145.915 MHz
MaSat-1 01 Nov 21:08:07 21:10:46 18° 108° (ESE) 21:13:16 437.345 MHz
SO-50 01 Nov 21:12:25 21:15:57 20° 250° (WSW) 21:19:28 436.795 FM
RS-15 01 Nov 21:14:07 21:25:05 78° 118° (ESE) 21:36:00 29.354 - 29.394 USB, Beacon 29.352 USB
ZACube-1 01 Nov 21:20:11 21:23:08 17° 66° (ENE) 21:26:03 437.345 MHz
HO-68 01 Nov 21:33:43 21:40:44 58° 258° (WSW) 21:47:49 435.675 MHz FM
Oscar 11 01 Nov 21:40:43 21:44:59 64° 75° (ENE) 21:49:16 145.825 FM, Beacon 2401.500 USB
UOSAT-12 01 Nov 21:47:37 21:52:21 80° 239° (WSW) 21:56:59 437.025 FM, 437.400 FM
FUNcube-1 01 Nov 22:01:06 22:05:24 45° 73° (ENE) 22:09:37 145.950 - 145.970 MHz USB
MaSat-1 01 Nov 22:42:34 22:45:58 30° 300° (WNW) 22:49:04 437.345 MHz
UKube-1 01 Nov 22:43:57 22:47:28 24° 265° (W) 22:51:01 145.840 MHz, 145.915 MHz
ZACube-1 01 Nov 22:54:50 22:59:11 46° 261° (W) 23:03:28 437.345 MHz
Oscar 11 01 Nov 23:20:29 23:21:34 11° 270° (W) 23:22:39 145.825 FM, Beacon 2401.500 USB
RS-15 01 Nov 23:28:50 23:38:33 35° 323° (NW) 23:48:23 29.354 - 29.394 USB, Beacon 29.352 USB
FUNcube-1 01 Nov 23:39:04 23:41:57 17° 268° (W) 23:44:49 145.950 - 145.970 MHz USB
JAS-1B 02 Nov 00:46:17 00:49:20 13° 89° (E) 00:52:33 435.800 - 435.900 CW/SSB
Oscar 16 02 Nov 01:11:26 01:13:26 12° 89° (E) 01:15:25 437.025 USB, Beacon 2401.1428
Sapphire 02 Nov 01:23:26 01:27:53 27° 108° (ESE) 01:32:22 437.095 MHz 1200 baud AX-25 AFSK
AO-Echo 02 Nov 01:34:29 01:35:45 11° 88° (E) 01:37:01 ?
PCSat 02 Nov 01:44:06 01:49:12 44° 112° (ESE) 01:54:20 145.825 MHz
Uribyol 2 02 Nov 01:47:55 01:49:15 11° 89° (E) 01:50:35 436.500 FM
RS-15 02 Nov 01:48:12 01:55:35 20° 358° (N) 01:03:05 29.354 - 29.394 USB, Beacon 29.352 USB
ITAMSAT 1 02 Nov 01:55:30 01:57:44 13° 90° (E) 01:59:57 435.822 SSB
Oscar 19 02 Nov 01:01:04 01:05:49 38° 98° (E) 01:10:33 437.125 CW, 437.150 USB
JAS-1B 02 Nov 01:33:17 01:40:35 73° 103° (ESE) 01:49:19 435.800 - 435.900 CW/SSB
AO-27 02 Nov 01:41:30 01:46:20 37° 98° (E) 01:51:07 436.795 MHz FM
Oscar 16 02 Nov 01:48:12 01:53:20 76° 286° (WNW) 01:58:26 437.025 USB, Beacon 2401.1428
Sapphire 02 Nov 02:05:56 02:11:04 43° 305° (NW) 02:16:15 437.095 MHz 1200 baud AX-25 AFSK
Gurwin Techsat 1B 02 Nov 02:06:14 02:11:03 34° 97° (E) 02:15:50 435.225 FM
AO-Echo 02 Nov 02:09:50 02:15:11 88° 283° (WNW) 02:20:26 ?
TMSAT-1 02 Nov 02:11:42 02:16:15 28° 95° (E) 02:20:45 436.925 FM
Uribyol 2 02 Nov 02:24:08 02:29:21 84° 285° (WNW) 02:34:32 436.500 FM
PCSat 02 Nov 02:28:09 02:32:47 28° 310° (NW) 02:37:27 145.825 MHz
ITAMSAT 1 02 Nov 02:32:33 02:37:46 75° 286° (WNW) 02:42:57 435.822 SSB
Oscar 19 02 Nov 02:40:47 02:44:58 26° 294° (WNW) 02:49:09 437.125 CW, 437.150 USB
RS-15 02 Nov 03:03:21 03:12:57 32° 33° (NNE) 03:22:48 29.354 - 29.394 USB, Beacon 29.352 USB
AO-27 02 Nov 03:21:18 03:25:40 28° 294° (WNW) 03:30:01 436.795 MHz FM
PANSAT 02 Nov 03:23:33 03:25:10 12° 174° (S) 03:26:48 not established
JAS-1B 02 Nov 03:25:12 03:30:42 24° 298° (WNW) 03:36:55 435.800 - 435.900 CW/SSB
OPAL 02 Nov 03:43:30 03:48:13 39° 67° (ENE) 03:52:54 ?
Gurwin Techsat 1B 02 Nov 03:46:19 03:50:55 30° 293° (WNW) 03:55:29 435.225 FM
AO-7 02 Nov 03:50:40 03:58:41 49° 101° (E) 04:06:40 29.400 - 29.500 MHz
AO-Echo 02 Nov 03:51:03 03:53:07 12° 301° (WNW) 03:55:10 ?
TMSAT-1 02 Nov 03:51:23 03:56:11 36° 292° (WNW) 04:00:58 436.925 FM
JAS-2 02 Nov 03:52:49 03:57:40 17° 86° (E) 04:02:22 435.800 - 435.900 CW/SSB, 435.910 FM
Uosat F 02 Nov 04:02:57 04:07:46 43° 99° (E) 04:12:32 435.120 FM
Uribyol 2 02 Nov 04:06:31 04:07:59 11° 302° (WNW) 04:09:26 436.500 FM
Saudisat 1A 02 Nov 04:30:05 04:34:25 67° 120° (ESE) 04:38:48 436.775 MHz
PANSAT 02 Nov 05:03:05 05:04:33 12° 187° (S) 05:06:02 not established
RS-15 02 Nov 05:15:41 05:26:56 89° 59° (ENE) 05:38:41 29.354 - 29.394 USB, Beacon 29.352 USB
OPAL 02 Nov 05:23:04 05:27:11 24° 263° (W) 05:31:17 ?
JAS-2 02 Nov 05:35:41 05:43:37 89° 104° (ESE) 05:51:11 435.800 - 435.900 CW/SSB, 435.910 FM
Hamsat 02 Nov 05:40:18 05:44:31 69° 101° (E) 05:48:46 145.90 MHz
STRAND 1 02 Nov 05:42:21 05:47:25 63° 73° (ENE) 05:52:32 ?
Uosat F 02 Nov 05:42:23 05:46:15 23° 296° (WNW) 05:50:07 435.120 FM
AO-7 02 Nov 05:43:45 05:51:16 40° 299° (WNW) 05:58:47 29.400 - 29.500 MHz
MaSat-1 02 Nov 05:51:47 05:53:38 19° 57° (ENE) 05:55:25 437.345 MHz
Saudisat 1A 02 Nov 06:11:34 06:14:26 17° 318° (NW) 06:17:18 436.775 MHz
SO-67 02 Nov 06:47:53 06:51:15 49° 99° (E) 06:54:35 435.3500 MHz FM
